Weather History for Huntingburg, IN

Change the Weather History Date:

Saturday, December 15, 2012

  Actual Average Record
Temperature  
Mean Temperature 50 °F -  
Max Temperature 55 °F 40 °F 69 °F (2011)
Min Temperature 44 °F 27 °F 14 °F (2004)
Degree Days  
Heating Degree Days 16    
Moisture  
Dew Point 42 °F    
Average Humidity 73    
Maximum Humidity 94    
Minimum Humidity 53    
Precipitation  
Precipitation 0.03 in - - ()
Sea Level Pressure  
Sea Level Pressure 29.93 in    
Wind  
Wind Speed 10 mph (South)    
Max Wind Speed 21 mph    
Max Gust Speed 31 mph    
Averages and records for this station are not official NWS values.
T = Trace of Precipitation, MM = Missing Value Source: NWS Daily Summary

Daily Weather History Graph

Daily Weather History Graph

Search for Another Location

Airport:

Trip Planner

Search our weather history database for the weather conditions in past years. The results will help you decide how hot, cold, wet, or windy it might be!

Date:

Astronomy

Dec. 15, 2012 Rise Set
Actual Time 7:57 AM EST 5:28 PM EST
Civil Twilight 7:28 AM EST 5:58 PM EST
Nautical Twilight 6:54 AM EST 6:31 PM EST
Astronomical Twilight 6:22 AM EST 7:03 PM EST
Moon 9:51 AM EST (12/15) 8:30 PM EST (12/15)
Length of Visible Light 10h 30m
Length of Day
9h 31m
Waxing Crescent, 8% of the Moon is Illuminated
Dec 15
Waxing Crescent
Dec 20
First Quarter
Dec 28
Full
Jan 4
Last Quarter
Jan 11
New

Hourly Weather History & Observations

Time (EST) Temp. Windchill Dew Point Humidity Pressure Visibility Wind Dir Wind Speed Gust Speed Precip Events Conditions
12:15 AM 46.4 °F 43.5 °F 30.2 °F 53% 30.12 in - SSE 5.8 mph - N/A   Clear
12:35 AM 46.4 °F 43.5 °F 30.2 °F 53% 30.12 in - SSE 5.8 mph - N/A   Clear
12:55 AM 44.6 °F 41.4 °F 32.0 °F 61% 30.12 in - SE 5.8 mph - N/A   Scattered Clouds
1:15 AM 46.4 °F 43.5 °F 30.2 °F 53% 30.12 in - SSE 5.8 mph - N/A   Scattered Clouds
1:35 AM 46.4 °F 42.9 °F 30.2 °F 53% 30.12 in - SE 6.9 mph - N/A   Partly Cloudy
1:55 AM 44.6 °F 40.7 °F 32.0 °F 61% 30.11 in - SSE 6.9 mph - N/A   Clear
2:15 AM 46.4 °F 42.9 °F 32.0 °F 57% 30.10 in - SSE 6.9 mph - N/A   Clear
2:35 AM 46.4 °F 41.9 °F 33.8 °F 62% 30.09 in - SE 9.2 mph - N/A   Partly Cloudy
2:55 AM 44.6 °F 40.7 °F 33.8 °F 66% 30.07 in - SE 6.9 mph - N/A   Partly Cloudy
3:15 AM 46.4 °F 42.9 °F 33.8 °F 62% 30.07 in - SSE 6.9 mph - N/A   Clear
3:35 AM 46.4 °F 43.5 °F 33.8 °F 62% 30.07 in - SSE 5.8 mph - N/A   Clear
3:55 AM 46.4 °F 43.5 °F 33.8 °F 62% 30.07 in - SSE 5.8 mph - N/A   Partly Cloudy
4:15 AM 46.4 °F 43.5 °F 33.8 °F 62% 30.06 in - SSE 5.8 mph - N/A   Partly Cloudy
4:35 AM 46.4 °F 43.5 °F 33.8 °F 62% 30.04 in - SSE 5.8 mph - N/A   Mostly Cloudy
4:55 AM 46.4 °F 42.4 °F 33.8 °F 62% 30.04 in - SSE 8.1 mph - N/A   Scattered Clouds
5:15 AM 46.4 °F 43.5 °F 33.8 °F 62% 30.04 in - South 5.8 mph - N/A   Scattered Clouds
5:35 AM 48.2 °F - 35.6 °F 62% 30.06 in - South 6.9 mph - N/A   Mostly Cloudy
5:55 AM 48.2 °F - 35.6 °F 62% 30.07 in - South 8.1 mph - N/A   Overcast
6:15 AM 48.2 °F - 35.6 °F 62% 30.05 in - SSE 6.9 mph - N/A   Overcast
6:35 AM 48.2 °F - 37.4 °F 66% 30.04 in - South 9.2 mph - N/A   Scattered Clouds
6:55 AM 46.4 °F 41.9 °F 37.4 °F 71% 30.02 in - SSE 9.2 mph - N/A   Mostly Cloudy
7:16 AM 46.4 °F 41.9 °F 37.4 °F 71% 30.00 in - SE 9.2 mph - N/A   Mostly Cloudy
7:35 AM 46.4 °F 42.9 °F 37.4 °F 71% 30.02 in - South 6.9 mph - N/A   Overcast
7:55 AM 46.4 °F 41.5 °F 37.4 °F 71% 30.02 in - South 10.4 mph - N/A   Overcast
8:15 AM 46.4 °F 41.5 °F 37.4 °F 71% 29.99 in - SSE 10.4 mph - N/A   Mostly Cloudy
8:35 AM 46.4 °F 41.9 °F 39.2 °F 76% 30.00 in - SSE 9.2 mph - N/A   Overcast
9:15 AM 46.4 °F 41.1 °F 39.2 °F 76% 29.99 in - SSE 11.5 mph 18.4 mph N/A   Overcast
9:35 AM 48.2 °F - 41.0 °F 76% 30.03 in - South 11.5 mph - N/A   Overcast
9:55 AM 46.4 °F 42.4 °F 41.0 °F 81% 30.01 in - SSE 8.1 mph - 0.01 in   Overcast
10:15 AM 46.4 °F 42.4 °F 41.0 °F 81% 30.00 in - South 8.1 mph - 0.01 in   Overcast
10:35 AM 46.4 °F 40.1 °F 42.8 °F 87% 29.97 in - SSE 15.0 mph 21.9 mph 0.02 in   Unknown
10:55 AM 46.4 °F 40.4 °F 42.8 °F 87% 29.96 in - SSE 13.8 mph 20.7 mph 0.02 in   Overcast
11:15 AM 48.2 °F - 42.8 °F 82% 29.94 in - SSE 12.7 mph 23.0 mph N/A   Overcast
11:35 AM 48.2 °F - 42.8 °F 82% 29.91 in - SSE 19.6 mph 31.1 mph N/A   Overcast
11:55 AM 48.2 °F - 42.8 °F 82% 29.89 in - South 18.4 mph 31.1 mph N/A   Overcast
12:15 PM 50.0 °F - 42.8 °F 76% 29.87 in - South 18.4 mph 27.6 mph N/A   Overcast
12:35 PM 50.0 °F - 42.8 °F 76% 29.87 in - South 12.7 mph 24.2 mph N/A   Overcast
12:55 PM 51.8 °F - 42.8 °F 71% 29.86 in - South 16.1 mph 20.7 mph N/A   Overcast
1:15 PM 51.8 °F - 42.8 °F 71% 29.84 in - South 12.7 mph 21.9 mph N/A   Overcast
1:35 PM 51.8 °F - 42.8 °F 71% 29.84 in - South 15.0 mph 20.7 mph N/A   Overcast
1:55 PM 51.8 °F - 42.8 °F 71% 29.83 in - South 15.0 mph 21.9 mph N/A   Overcast
2:15 PM 51.8 °F - 44.6 °F 76% 29.83 in - South 16.1 mph 21.9 mph N/A   Overcast
2:35 PM 51.8 °F - 44.6 °F 76% 29.82 in - South 19.6 mph - N/A   Overcast
2:55 PM 53.6 °F - 44.6 °F 72% 29.81 in - South 18.4 mph 26.5 mph N/A   Overcast
3:15 PM 53.6 °F - 46.4 °F 77% 29.81 in - South 19.6 mph - N/A   Overcast
3:35 PM 51.8 °F - 46.4 °F 82% 29.80 in - South 19.6 mph 28.8 mph N/A   Overcast
3:55 PM 51.8 °F - 46.4 °F 82% 29.80 in - South 15.0 mph - N/A   Overcast
4:15 PM 53.6 °F - 46.4 °F 77% 29.80 in - South 12.7 mph 23.0 mph N/A   Overcast
4:35 PM 53.6 °F - 46.4 °F 77% 29.80 in - South 15.0 mph 20.7 mph N/A   Overcast
4:55 PM 53.6 °F - 46.4 °F 77% 29.80 in - South 17.3 mph 23.0 mph N/A   Overcast
5:15 PM 53.6 °F - 46.4 °F 77% 29.79 in - South 19.6 mph 26.5 mph N/A   Overcast
5:35 PM 53.6 °F - 46.4 °F 77% 29.79 in - South 20.7 mph 27.6 mph N/A   Overcast
5:55 PM 53.6 °F - 48.2 °F 82% 29.79 in - SSW 17.3 mph 28.8 mph N/A   Overcast
6:15 PM 53.6 °F - 48.2 °F 82% 29.78 in - South 20.7 mph 24.2 mph N/A   Overcast
6:35 PM 53.6 °F - 48.2 °F 82% 29.80 in - SSW 18.4 mph 23.0 mph N/A   Overcast
6:55 PM 55.4 °F - 48.2 °F 77% 29.80 in - South 17.3 mph 23.0 mph N/A   Overcast
7:15 PM 55.4 °F - 48.2 °F 77% 29.80 in - South 17.3 mph 24.2 mph N/A   Overcast
7:35 PM 55.4 °F - 48.2 °F 77% 29.79 in - South 18.4 mph - N/A   Overcast
7:55 PM 55.4 °F - 48.2 °F 77% 29.80 in - SSW 15.0 mph 20.7 mph N/A   Overcast
8:35 PM 55.4 °F - 50.0 °F 82% 29.80 in - SSW 17.3 mph 21.9 mph N/A   Overcast
9:15 PM 55.4 °F - 50.0 °F 82% 29.81 in - SSW 16.1 mph - N/A   Mostly Cloudy
9:35 PM 55.4 °F - 50.0 °F 82% 29.80 in - SSW 16.1 mph 21.9 mph N/A   Scattered Clouds
9:55 PM 55.4 °F - 50.0 °F 82% 29.80 in - SSW 16.1 mph 23.0 mph N/A   Partly Cloudy
10:15 PM 55.4 °F - 50.0 °F 82% 29.80 in - SSW 15.0 mph - N/A   Clear
10:35 PM 55.4 °F - 50.0 °F 82% 29.81 in - SSW 15.0 mph - N/A   Partly Cloudy
10:55 PM 55.4 °F - 51.8 °F 88% 29.81 in - SSW 13.8 mph - N/A   Unknown
11:15 PM 55.4 °F - 51.8 °F 88% 29.81 in - SSW 12.7 mph - N/A   Unknown
11:35 PM 55.4 °F - 51.8 °F 88% 29.81 in - SSW 10.4 mph - N/A   Unknown
11:55 PM 53.6 °F - 51.8 °F 94% 29.80 in - South 10.4 mph - N/A   Unknown